sat.trackr.live / text

‹ back to catalog

QIANFAN-149

NORAD 69108 · 2026-108E

PAYLOAD ACTIVE UNKNOWN

§ Identity

Operator
Country
PRC
Launch date
2026-05-17
Launch site
WSC
Launch vehicle
Mass (kg)
RCS (m²)

External: N2YO · Heavens-Above · Gunter

§ Orbital elements

Epoch: 2026-09-20T03:53:25.866816Z

Period
106.59 min
Inclination
89.0189°
Eccentricity
0.0002308
Mean motion
13.51024192 rev/d
Perigee alt
1,066.8 km
Apogee alt
1,070.2 km
Semi-major
7,446.6 km
B*
1.6176e-4
RAAN
12.5833°
Arg perigee
108.6396°
Mean anomaly
251.5006°
Rev number
1,725

§ Raw data

QIANFAN-1491 69108U 26108E   26263.16210494  .00000116  00000+0  16176-3 0  99982 69108  89.0189  12.5833 0002308 108.6396 251.5006 13.51024192 17251

JSON: /api/v1/satellites/69108 · /tle

For live sub-satellite position, see the globe view (requires WebGL).

§ Visibility from observer

Set your observer location to see the next 7 days of passes ≥ 10°. The values pass through the URL so the page stays shareable.

No JS? Fill the form by hand. The geolocation button needs JavaScript.